CGJCB TNCM-GMMN

Flight info

Callsign CGJCB
Flight time N/A
Altitude 35000
Route MODOR2 MNOLO M576 RKDIA DCT 21N050W 25N040W 30N030W 32N020W DCT ABALO/N0463F350 DCT NIPRI DCT NEVTU DCT IBLIV DCT NISBA UH500 RAVOL
Aircraft CL60/M-SBDE1E2E3FGHIJ1J4J5J7M3RWXYZ/LB1V1D1

Departure

Time 2026-05-07 10:56
Airport Princess Juliana International Airport (TNCM)

Arrival

Time N/A
Airport Mohammed V International Airport (GMMN)
Time Latitude Longitude Altitude Speed Heading
2026-05-07 10:19 18.04255 -63.11188 17 ft 0 kts 171°
2026-05-07 10:51 18.04254 -63.11188 17 ft 1 kts 172°
2026-05-07 10:51 18.04231 -63.11188 17 ft 4 kts 206°
2026-05-07 10:52 18.04219 -63.11219 18 ft 5 kts 262°
2026-05-07 10:52 18.04212 -63.11273 18 ft 9 kts 263°
2026-05-07 10:52 18.04238 -63.11342 18 ft 10 kts 285°
2026-05-07 10:52 18.04230 -63.11424 20 ft 12 kts 261°
2026-05-07 10:53 18.04195 -63.11510 21 ft 13 kts 230°
2026-05-07 10:53 18.04129 -63.11596 22 ft 15 kts 232°
2026-05-07 10:53 18.04069 -63.11679 23 ft 13 kts 244°
2026-05-07 10:53 18.04050 -63.11787 23 ft 16 kts 262°
2026-05-07 10:54 18.04033 -63.11889 24 ft 8 kts 248°
2026-05-07 10:54 18.04014 -63.11927 24 ft 7 kts 235°
2026-05-07 10:54 18.03965 -63.11966 23 ft 10 kts 166°
2026-05-07 10:54 18.03950 -63.11895 23 ft 11 kts 79°
2026-05-07 10:55 18.03970 -63.11747 22 ft 44 kts 82°
2026-05-07 10:55 18.04052 -63.11175 17 ft 110 kts 81°
2026-05-07 10:55 18.04197 -63.10200 39 ft 155 kts 82°
2026-05-07 10:55 18.04040 -63.09076 386 ft 164 kts 120°
2026-05-07 10:56 18.03013 -63.08406 685 ft 191 kts 163°
2026-05-07 10:56 18.01733 -63.08123 1378 ft 188 kts 164°
2026-05-07 10:56 18.00413 -63.07869 1961 ft 195 kts 166°
2026-05-07 10:56 17.99145 -63.07386 2475 ft 196 kts 136°
2026-05-07 10:57 17.98420 -63.06206 3000 ft 197 kts 104°
2026-05-07 10:57 17.98414 -63.04763 3547 ft 201 kts 74°
2026-05-07 10:57 17.99175 -63.03524 4085 ft 210 kts 40°
2026-05-07 10:57 18.00429 -63.02650 4602 ft 225 kts 33°
2026-05-07 10:58 18.01811 -63.01751 5135 ft 238 kts 33°
2026-05-07 10:58 18.03258 -63.00802 5666 ft 251 kts 33°
2026-05-07 10:58 18.04781 -62.99803 6191 ft 263 kts 33°
2026-05-07 10:58 18.06370 -62.98760 6717 ft 274 kts 33°
2026-05-07 10:59 18.08027 -62.97672 7241 ft 284 kts 33°
2026-05-07 10:59 18.09726 -62.96550 7768 ft 291 kts 33°
2026-05-07 10:59 18.11470 -62.95399 8296 ft 297 kts 32°
2026-05-07 10:59 18.13261 -62.94218 8831 ft 303 kts 32°
2026-05-07 11:00 18.15073 -62.93023 9363 ft 308 kts 32°
2026-05-07 11:00 18.16885 -62.91827 9886 ft 312 kts 32°
2026-05-07 11:00 18.18734 -62.90608 10414 ft 315 kts 32°
2026-05-07 11:00 18.20624 -62.89360 10950 ft 318 kts 32°
2026-05-07 11:01 18.22509 -62.88117 11482 ft 320 kts 32°
2026-05-07 11:01 18.24411 -62.86861 12017 ft 321 kts 31°
2026-05-07 11:01 18.26300 -62.85615 12542 ft 322 kts 31°
2026-05-07 11:01 18.28223 -62.84346 13076 ft 322 kts 31°
2026-05-07 11:02 18.30121 -62.83092 13611 ft 322 kts 31°
2026-05-07 11:02 18.32027 -62.81833 14144 ft 322 kts 31°
2026-05-07 11:02 18.33902 -62.80592 14670 ft 321 kts 32°
2026-05-07 11:02 18.35657 -62.79102 15203 ft 322 kts 42°
2026-05-07 11:03 18.37250 -62.77445 15731 ft 321 kts 43°
2026-05-07 11:03 18.38827 -62.75809 16259 ft 319 kts 43°
2026-05-07 11:03 18.40413 -62.74168 16794 ft 316 kts 42°
2026-05-07 11:03 18.42009 -62.72519 17329 ft 318 kts 42°
2026-05-07 11:04 18.43596 -62.70880 17853 ft 321 kts 42°
2026-05-07 11:04 18.45189 -62.69235 18378 ft 323 kts 42°
2026-05-07 11:04 18.46794 -62.67577 18906 ft 324 kts 42°
2026-05-07 11:04 18.48415 -62.65902 19441 ft 324 kts 41°
2026-05-07 11:05 18.50025 -62.64237 19972 ft 324 kts 41°
2026-05-07 11:05 18.51626 -62.62581 20497 ft 324 kts 41°
2026-05-07 11:05 18.53252 -62.60900 21032 ft 323 kts 41°
2026-05-07 11:05 18.54859 -62.59238 21564 ft 322 kts 41°
2026-05-07 11:06 18.56457 -62.57584 22087 ft 321 kts 41°
2026-05-07 11:06 18.58057 -62.55930 22440 ft 325 kts 41°
2026-05-07 11:06 18.59700 -62.54230 22750 ft 331 kts 41°
2026-05-07 11:06 18.61369 -62.52504 23063 ft 337 kts 41°
2026-05-07 11:07 18.63046 -62.50769 23372 ft 343 kts 41°
2026-05-07 11:07 18.64761 -62.48993 23672 ft 349 kts 41°
2026-05-07 11:07 18.66526 -62.47166 23982 ft 355 kts 41°
2026-05-07 11:07 18.68326 -62.45301 24293 ft 360 kts 41°
2026-05-07 11:08 18.70113 -62.43449 24596 ft 366 kts 41°
2026-05-07 11:08 18.71967 -62.41526 24905 ft 371 kts 41°
2026-05-07 11:08 18.73814 -62.39611 25209 ft 375 kts 41°
2026-05-07 11:08 18.75695 -62.37659 25516 ft 379 kts 41°
2026-05-07 11:09 18.77618 -62.35664 25825 ft 383 kts 41°
2026-05-07 11:09 18.79522 -62.33686 26131 ft 387 kts 42°
2026-05-07 11:09 18.81472 -62.31661 26437 ft 390 kts 41°
2026-05-07 11:09 18.83417 -62.29639 26744 ft 392 kts 42°
2026-05-07 11:10 18.85378 -62.27601 27049 ft 395 kts 42°
2026-05-07 11:10 18.87324 -62.25577 27354 ft 397 kts 42°
2026-05-07 11:10 18.89306 -62.23515 27658 ft 399 kts 42°
2026-05-07 11:10 18.91293 -62.21448 27961 ft 400 kts 42°
2026-05-07 11:11 18.93280 -62.19379 28267 ft 401 kts 42°
2026-05-07 11:11 18.95295 -62.17281 28576 ft 402 kts 42°
2026-05-07 11:11 18.97290 -62.15203 28877 ft 403 kts 42°
2026-05-07 11:11 18.99294 -62.13114 29186 ft 404 kts 42°
2026-05-07 11:12 19.01298 -62.11025 29486 ft 405 kts 42°
2026-05-07 11:12 19.03330 -62.08906 29794 ft 405 kts 42°
2026-05-07 11:12 19.05337 -62.06812 30094 ft 405 kts 41°
2026-05-07 11:12 19.07343 -62.04719 30402 ft 405 kts 41°
2026-05-07 11:13 19.09376 -62.02596 30702 ft 405 kts 41°
2026-05-07 11:13 19.11403 -62.00480 30907 ft 408 kts 41°
2026-05-07 11:13 19.13432 -61.98361 31089 ft 411 kts 41°
2026-05-07 11:13 19.15490 -61.96214 31262 ft 414 kts 41°
2026-05-07 11:14 19.17578 -61.94034 31451 ft 417 kts 41°
2026-05-07 11:14 19.19642 -61.91877 31637 ft 419 kts 41°
2026-05-07 11:14 19.21741 -61.89682 31825 ft 421 kts 41°
2026-05-07 11:14 19.23852 -61.87475 32011 ft 424 kts 41°
2026-05-07 11:15 19.25955 -61.85274 32194 ft 425 kts 41°
2026-05-07 11:15 19.28061 -61.83070 32380 ft 427 kts 41°
2026-05-07 11:15 19.30187 -61.80843 32549 ft 429 kts 41°
2026-05-07 11:15 19.32330 -61.78596 32720 ft 431 kts 41°
2026-05-07 11:16 19.34475 -61.76350 32895 ft 433 kts 41°
2026-05-07 11:16 19.36656 -61.74065 33079 ft 434 kts 41°
2026-05-07 11:16 19.38819 -61.71796 33268 ft 435 kts 41°
2026-05-07 11:16 19.40995 -61.69514 33449 ft 436 kts 41°
2026-05-07 11:17 19.43171 -61.67231 33630 ft 437 kts 41°
2026-05-07 11:17 19.45336 -61.64967 33812 ft 438 kts 41°
2026-05-07 11:17 19.47530 -61.62666 33990 ft 439 kts 41°
2026-05-07 11:17 19.49722 -61.60360 34168 ft 440 kts 41°
2026-05-07 11:18 19.51908 -61.58059 34346 ft 440 kts 41°
2026-05-07 11:18 19.54089 -61.55762 34528 ft 439 kts 41°
2026-05-07 11:18 19.56273 -61.53462 34706 ft 439 kts 41°
2026-05-07 11:18 19.58448 -61.51170 34887 ft 439 kts 41°
2026-05-07 11:19 19.60633 -61.48867 35066 ft 439 kts 41°
2026-05-07 11:19 19.62833 -61.46547 35091 ft 443 kts 41°
2026-05-07 11:19 19.67244 -61.41895 35097 ft 451 kts 41°
2026-05-07 11:20 19.71748 -61.37142 35094 ft 458 kts 41°
2026-05-07 11:20 19.76343 -61.32289 35092 ft 464 kts 42°
2026-05-07 11:21 19.80965 -61.27401 35093 ft 470 kts 42°
2026-05-07 11:21 19.85633 -61.22461 35092 ft 474 kts 42°
2026-05-07 11:22 19.90338 -61.17477 35088 ft 478 kts 42°
2026-05-07 11:22 19.95092 -61.12436 35087 ft 482 kts 42°
2026-05-07 11:23 19.99868 -61.07361 35091 ft 485 kts 42°
2026-05-07 11:23 20.04677 -61.02246 35092 ft 488 kts 42°
2026-05-07 11:24 20.09495 -60.97119 35091 ft 490 kts 42°
2026-05-07 11:24 20.14382 -60.91916 35092 ft 492 kts 42°
2026-05-07 11:25 20.19240 -60.86741 35093 ft 494 kts 42°
2026-05-07 11:25 20.24101 -60.81562 35092 ft 495 kts 42°
2026-05-07 11:26 20.29023 -60.76314 35088 ft 496 kts 42°
2026-05-07 11:26 20.33929 -60.71076 35089 ft 496 kts 42°
2026-05-07 11:27 20.38831 -60.65837 35089 ft 496 kts 42°
2026-05-07 11:27 20.43751 -60.60574 35092 ft 497 kts 42°
2026-05-07 11:28 20.48635 -60.55344 35090 ft 497 kts 42°
2026-05-07 11:28 20.53559 -60.50064 35089 ft 497 kts 42°
2026-05-07 11:29 20.58457 -60.44808 35096 ft 497 kts 42°
2026-05-07 11:29 20.63373 -60.39528 35094 ft 497 kts 42°
2026-05-07 11:30 20.68305 -60.34222 35057 ft 497 kts 43°
2026-05-07 11:30 20.73157 -60.28995 35088 ft 497 kts 43°
2026-05-07 11:31 20.78053 -60.23719 35094 ft 497 kts 43°
2026-05-07 11:31 20.82904 -60.18486 35093 ft 498 kts 43°
2026-05-07 11:32 20.90260 -60.10541 35092 ft 499 kts 43°
2026-05-07 11:33 20.94719 -60.04838 35091 ft 502 kts 54°
2026-05-07 11:33 20.98011 -59.98249 35093 ft 505 kts 66°
2026-05-07 11:34 20.99930 -59.90960 35091 ft 508 kts 79°
2026-05-07 11:34 21.00474 -59.83391 35095 ft 509 kts 88°
2026-05-07 11:35 21.00674 -59.75859 35094 ft 509 kts 88°
2026-05-07 11:35 21.00878 -59.68242 35092 ft 510 kts 88°
2026-05-07 11:36 21.01081 -59.60651 35095 ft 511 kts 88°
2026-05-07 11:36 21.01281 -59.53054 35095 ft 511 kts 88°
2026-05-07 11:37 21.01478 -59.45444 35096 ft 511 kts 88°
2026-05-07 11:37 21.01673 -59.37855 35096 ft 512 kts 88°
2026-05-07 11:38 21.01867 -59.30201 35093 ft 512 kts 88°
2026-05-07 11:38 21.02056 -59.22608 35094 ft 511 kts 88°
2026-05-07 11:39 21.02243 -59.14950 35098 ft 511 kts 88°
2026-05-07 11:39 21.02426 -59.07340 35096 ft 512 kts 89°
2026-05-07 11:40 21.02605 -58.99741 35095 ft 513 kts 89°
2026-05-07 11:40 21.02782 -58.92107 35095 ft 513 kts 89°
2026-05-07 11:41 21.02955 -58.84497 35095 ft 513 kts 89°
2026-05-07 11:41 21.03125 -58.76876 35094 ft 513 kts 89°
2026-05-07 11:42 21.03294 -58.69162 35096 ft 514 kts 89°
2026-05-07 11:42 21.03457 -58.61544 35097 ft 514 kts 89°
2026-05-07 11:43 21.03618 -58.53884 35095 ft 515 kts 89°
2026-05-07 11:43 21.03775 -58.46210 35095 ft 515 kts 89°
2026-05-07 11:44 21.03930 -58.38475 35096 ft 516 kts 89°
2026-05-07 11:44 21.04080 -58.30835 35096 ft 516 kts 90°
2026-05-07 11:45 21.04228 -58.23137 35094 ft 517 kts 90°
2026-05-07 11:45 21.04371 -58.15467 35096 ft 517 kts 90°
2026-05-07 11:46 21.04512 -58.07764 35096 ft 516 kts 90°
2026-05-07 11:46 21.04649 -58.00081 35094 ft 516 kts 90°
2026-05-07 11:47 21.04783 -57.92386 35096 ft 517 kts 90°
2026-05-07 11:47 21.04913 -57.84674 35101 ft 517 kts 90°